SCP
0 0 0 0 0 0 0 0 0 0 0 0 0 0 0 0 0 0 1 3 5 7 10 13 14 12 11 10 8 7 9 11 11 10 9 9 7 6 4 3 3 2 1 1
0 0 0 0 0 0 0 0 0 0 0 0 0 0 0 0 0 0 1 2 5 8 13 16 15 13 11 9 8 9 11 12 12 11 10 9 7 5 4 3 2 2 1 1
0 0 0 0 0 0 0 0 0 0 0 0 0 0 0 0 0 0 0 1 4 9 15 18 17 13 11 9 8 10 12 13 13 12 11 9 6 4 3 2 2 1 0 0
-0 0 0 0 0 0 0 0 0 0 0 0 0 0 0 0 0 0 0 0 2 8 15 19 18 14 11 10 9 10 12 13 13 13 11 8 6 4 3 2 1 0 0 0
0 0 0 0 0 0 0 0 0 0 0 0 0 0 0 0 0 0 0 0 2 8 15 19 17 14 11 11 10 10 11 12 12 12 10 8 5 4 3 2 1 0 0 0
0 0 0 0 0 0 0 0 0 0 0 0 0 0 0 0 0 0 1 2 5 11 15 17 15 12 10 10 10 9 9 9 9 9 8 6 4 2 2 1 0 0 0 0
0 0 0 0 0 0 0 0 0 0 0 0 0 0 0 0 0 1 2 5 10 14 14 13 12 11 9 8 8 7 6 6 6 5 5 4 2 1 1 0 0 0 0 0
0 0 0 0 0 0 0 0 0 0 0 0 0 0 0 0 0 2 4 7 11 12 11 10 10 9 7 6 6 5 4 3 3 2 2 2 1 1 0 0 0 0 0 0
0 0 0 0 0 0 0 0 0 0 0 0 0 0 0 0 1 3 6 8 8 8 7 7 7 6 4 4 3 3 2 1 1 1 1 1 0 0 0 0 0 0 0 0
0 0 0 0 0 0 0 0 0 0 0 0 0 0 0 0 1 3 6 6 5 4 4 3 3 2 2 2 1 1 1 1 1 0 0 0 0 0 0 0 0 0 0 0
0 0 0 0 0 0 0 0 0 0 0 0 0 0 0 1 1 3 5 5 4 2 2 1 1 1 1 1 1 1 0 0 0 0 0 0 0 0 0 0 0 0 0 0
0 0 0 0 0 0 0 0 0 0 0 0 0 0 1 1 2 3 5 5 3 2 1 1 1 0 0 0 0 0 0 0 0 0 0 0 0 0 0 0 0 0 0 0
0 0 0 0 0 0 0 0 0 0 0 0 0 0 1 2 3 4 4 4 3 1 1 0 0 0 0 0 0 0 0 0 0 0 0 0 0 0 0 0 0 0 0 0
0 0 0 0 0 0 0 0 0 0 0 0 0 0 1 2 3 3 3 3 2 1 0 0 0 0 0 0 0 0 0 0 0 0 0 0 0 0 0 0 0 0 0 0
0 0 0 0 0 0 0 0 0 0 0 0 0 1 1 2 3 3 3 2 1 0 0 0 0 0 0 0 0 0 0 0 0 0 0 0 0 0 0 0 0 0 0 0
0 0 0 0 0 0 0 0 0 0 0 0 0 1 2 3 4 4 3 2 1 0 0 0 0 0 0 0 0 0 0 0 0 0 0 0 0 0 0 0 0 0 0 0
0 0 0 0 0 0 0 0 0 0 0 1 1 2 3 3 4 4 3 2 1 0 0 0 0 0 0 0 0 0 0 0 0 0 0 0 0 0 0 0 0 0 0 0
0 0 0 0 0 0 0 0 0 0 1 1 1 1 2 2 2 2 2 2 1 0 0 0 0 0 0 0 0 0 0 0 0 0 0 0 0 0 0 0 0 0 0 0
0 0 0 0 0 0 0 0 0 0 1 1 1 1 1 1 1 1 1 1 1 0 0 0 0 0 0 0 0 0 0 0 0 0 0 0 0 0 0 0 0 0 0 0
0 0 0 0 0 0 0 0 0 0 0 0 0 0 0 1 0 0 0 0 0 0 0 0 0 0 0 0 0 0 0 0 0 0 0 0 0 0 0 0 0 0 0 0
0 0 0 0 0 0 0 0 0 0 0 0 0 0 0 0 0 0 0 0 0 0 0 0 0 0 0 0 0 0 0 0 0 0 0 0 0 0 0 0 0 0 0 0
0 0 0 0 0 0 0 0 0 0 0 0 0 0 0 0 0 0 0 0 0 0 0 0 0 0 0 0 0 0 0 0 0 0 0 0 0 0 0 0 0 0 0 0
0 0 0 0 0 0 0 0 0 0 1 0 0 0 0 0 0 0 0 0 0 0 0 0 0 0 0 0 0 0 0 0 0 0 0 0 0 0 0 0 0 0 0 0
0 0 0 0 0 0 0 0 0 1 1 0 0 0 0 0 0 0 0 0 0 0 0 0 0 0 0 0 0 0 0 0 0 0 0 0 0 0 0 0 0 0 0 0
0 0 0 0 0 0 0 0 0 0 0 0 0 0 0 0 0 0 0 0 0 0 0 0 0 0 0 0 0 0 0 0 0 0 0 0 0 0 0 0 0 0 0 0
0 0 0 0 0 0 0 0 0 0 0 0 0 0 0 0 0 0 0 0 0 0 0 0 0 0 0 0 0 0 0 0 0 0 0 0 0 0 0 0 0 0 0 0
Wind_Speed
16 15 16 18 20 20 20 22 21 18 18 20 20 17 13 13 11 13 12 12 11 12 14 19 18 16 13 9 6 6 8 10 9 8 8 7 7 7 7 7 9 8 8 7
17 20 20 19 19 20 21 21 20 17 15 13 11 13 13 14 16 13 14 13 11 11 15 20 18 15 13 11 8 6 7 9 9 7 6 6 7 7 8 7 6 7 6 5
22 20 21 20 19 18 17 17 16 16 17 17 18 17 14 14 20 20 15 16 16 11 18 22 19 16 14 12 9 7 7 7 7 10 8 8 7 8 7 7 5 5 5 6
21 22 16 12 14 14 13 13 14 16 16 15 17 17 16 18 22 22 21 19 17 15 15 21 19 15 12 11 8 7 7 7 8 9 11 11 8 7 7 6 5 5 5 5
18 19 18 16 15 14 14 13 14 15 15 16 16 18 17 17 18 16 17 18 17 16 14 18 18 14 11 10 9 8 8 8 7 7 8 7 7 7 5 6 5 4 6 4
19 18 17 16 15 13 12 13 13 13 13 16 17 19 19 16 18 16 16 13 14 14 15 18 17 14 11 9 10 10 9 8 7 8 7 8 8 7 7 5 5 3 5 5
21 19 16 11 11 13 12 10 10 12 13 17 19 20 17 16 16 12 6 2 1 14 20 19 17 15 11 10 10 10 10 9 8 8 8 8 7 6 6 4 4 0 3 7
20 19 19 17 14 13 13 13 12 12 12 12 12 11 10 7 3 1 5 14 19 19 18 17 16 14 12 11 11 11 11 10 8 8 7 6 4 4 6 4 3 3 4 6
17 16 19 22 19 17 15 14 15 14 16 15 14 17 15 9 8 7 7 17 18 17 17 16 15 14 13 11 10 11 11 10 8 8 6 5 6 8 8 4 2 4 3 3
12 12 12 11 14 16 16 14 11 13 12 14 15 15 10 10 6 5 11 17 15 15 16 15 14 14 11 9 8 10 10 9 9 7 5 6 6 6 4 4 6 4 4 4
6 8 13 9 11 13 15 17 15 11 11 12 13 9 4 5 5 6 13 14 12 14 14 13 13 12 10 9 9 10 11 10 7 7 6 6 5 4 3 3 4 3 2 1
8 9 13 15 14 14 14 15 14 12 14 14 14 12 6 7 9 4 12 17 14 12 12 12 12 11 9 10 10 10 9 9 7 7 6 5 4 3 3 4 4 3 2 1
9 6 10 13 14 14 16 14 14 12 10 11 13 7 11 13 17 17 16 13 11 12 12 11 9 7 8 9 9 9 8 8 8 7 6 5 4 3 3 4 4 2 1 2
6 7 11 14 9 8 11 9 12 14 12 11 12 9 8 8 10 12 13 11 9 11 12 11 8 4 4 7 8 8 7 6 6 5 5 4 3 3 3 4 3 2 3 4
5 10 14 17 18 13 11 6 6 11 11 10 10 9 5 2 5 11 13 12 11 11 12 11 8 5 7 10 10 9 8 6 3 2 2 3 3 3 3 3 3 3 4 5
5 8 12 15 17 16 15 15 12 13 13 12 13 9 15 14 11 10 12 13 12 12 13 11 8 7 10 11 10 9 7 5 3 3 2 3 3 2 3 2 2 4 5 6
5 5 9 13 15 15 18 17 15 13 10 10 9 12 14 15 16 13 6 11 13 13 13 12 11 11 11 11 11 9 8 7 7 8 8 5 3 2 2 3 6 7 6 6
6 7 7 11 13 16 12 5 5 6 7 10 9 12 12 12 14 15 12 6 10 12 12 13 12 13 11 11 10 9 7 7 5 3 3 4 2 2 4 7 7 7 6 6
6 6 8 10 13 16 13 5 6 3 7 12 10 11 11 8 6 13 13 10 10 12 13 12 12 12 11 10 7 6 3 2 3 5 4 0 4 5 7 7 7 6 5 5
6 7 9 11 12 12 5 7 5 4 4 9 9 9 10 9 5 5 8 11 14 14 13 12 11 11 9 5 3 3 3 3 2 2 4 5 6 5 5 6 5 4 3 4
9 9 11 12 13 7 8 4 6 4 5 7 8 8 6 6 7 8 9 11 13 13 12 11 10 7 5 3 3 3 3 3 3 5 5 7 6 5 6 5 3 3 4 4
5 5 7 8 10 2 9 7 7 7 6 8 9 7 7 11 11 11 11 12 13 13 11 9 7 5 3 3 3 4 3 3 4 5 7 7 6 7 6 5 4 4 5 5
5 5 4 3 2 3 4 6 8 8 9 9 9 6 11 12 11 12 12 12 12 10 8 6 6 6 5 6 4 5 4 5 6 6 6 6 6 6 6 5 6 5 5 6
4 6 8 7 4 2 4 7 8 9 8 7 6 8 13 14 13 13 12 11 10 8 7 7 8 6 5 5 6 6 5 6 6 4 3 5 6 6 5 4 5 5 6 6
6 5 6 9 10 9 6 10 9 8 7 8 9 12 14 16 15 13 11 10 9 9 9 8 6 6 8 8 7 6 5 4 3 3 3 6 6 5 3 4 4 5 6 5
5 6 7 8 7 6 5 6 7 8 10 11 13 14 14 14 15 13 10 10 9 8 7 6 7 9 9 8 7 7 7 7 6 4 4 4 5 4 4 3 3 3 3 4
Wind_Direction
209 223 226 223 223 238 253 264 270 267 244 246 231 233 247 256 220 216 226 233 222 188 166 139 145 147 149 157 184 187 171 153 147 142 144 138 127 118 109 100 89 80 78 73
216 224 234 240 237 231 241 256 268 278 288 287 268 233 238 265 271 245 224 236 246 192 153 141 148 150 156 167 185 193 158 146 148 139 133 131 124 111 99 92 92 93 88 79
226 230 222 234 250 250 248 254 265 273 279 276 275 263 248 253 266 265 238 228 244 225 167 152 154 157 161 167 171 180 156 159 145 130 123 110 99 109 115 120 111 108 104 92
229 240 242 228 241 249 253 256 262 269 274 272 273 272 251 241 243 245 243 233 229 236 192 160 155 158 158 150 155 157 144 131 124 127 131 138 148 142 132 133 132 131 98 79
227 232 239 240 240 246 250 256 259 260 259 263 267 272 270 265 254 252 247 225 223 230 198 158 150 147 129 125 132 131 122 118 122 119 130 136 117 113 122 120 133 142 119 99
245 242 233 237 238 234 248 259 260 263 264 259 255 259 264 261 262 261 254 218 218 214 153 139 135 129 116 118 126 124 115 106 98 94 92 95 103 117 123 127 142 176 141 127
240 245 250 237 239 232 224 241 245 238 237 247 247 248 254 255 262 270 289 62 95 133 127 129 133 135 127 121 124 122 119 110 101 97 91 95 102 113 122 137 124 336 123 117
230 228 229 227 219 240 218 223 244 260 265 272 278 273 267 254 256 321 70 89 94 107 117 125 133 136 131 124 125 126 122 117 113 104 97 100 132 162 122 70 93 93 70 96
245 238 223 212 208 220 242 233 236 252 266 276 282 288 290 259 222 201 135 106 107 113 120 126 130 130 127 124 124 123 120 119 114 102 97 91 69 70 91 96 59 92 90 114
267 284 285 206 200 207 227 247 250 245 261 275 280 281 292 321 251 182 112 110 117 124 129 131 132 127 121 116 109 112 112 106 104 111 115 103 93 92 106 101 71 66 78 80
294 285 281 262 207 226 221 228 243 261 263 268 276 287 17 359 35 95 119 122 139 141 137 135 132 126 123 118 110 106 100 96 92 90 90 103 111 120 132 118 119 107 82 122
272 270 270 270 269 263 252 239 236 239 249 261 271 282 33 16 12 18 141 140 143 137 129 126 127 131 134 127 118 110 110 113 114 114 110 109 123 150 165 130 109 119 120 308
322 257 255 262 263 268 265 248 249 257 251 252 261 277 63 36 40 58 86 105 122 124 121 121 126 132 134 132 130 126 121 125 133 136 137 142 157 159 142 118 101 73 19 310
315 280 263 264 277 309 298 284 282 266 250 251 262 290 49 37 66 89 94 96 113 125 129 135 134 116 106 122 118 111 104 103 112 126 131 147 153 134 119 97 84 25 348 329
267 269 267 272 277 271 275 280 298 295 285 283 301 319 14 126 125 125 120 127 133 137 139 142 141 126 100 94 89 83 74 67 70 109 139 138 125 114 97 71 37 11 2 359
224 280 290 283 278 279 277 273 259 259 275 291 297 350 50 53 65 110 133 143 149 149 143 140 132 111 96 89 85 78 68 48 12 17 45 74 56 58 67 53 39 42 33 20
325 299 280 278 284 284 271 278 292 293 313 339 3 41 38 47 49 47 78 150 157 153 144 131 107 94 86 79 74 66 49 31 31 26 17 10 0 19 40 36 46 43 31 24
302 311 303 285 281 268 275 314 3 341 10 16 28 40 44 47 63 51 41 100 141 141 129 116 109 99 89 82 75 66 54 42 36 9 313 304 307 81 58 51 45 37 29 23
237 263 272 275 268 264 267 38 30 14 64 35 25 18 16 12 96 58 41 68 103 109 110 109 106 102 96 93 95 101 116 174 217 231 235 116 47 46 53 50 41 37 16 9
228 230 247 256 265 267 47 45 12 295 109 36 20 6 355 343 324 71 64 86 96 104 109 110 108 107 110 121 138 165 201 210 204 134 89 67 47 34 56 57 38 14 353 359
231 233 236 245 252 261 54 339 294 287 59 18 9 0 354 39 67 100 99 100 107 111 111 112 114 116 128 152 164 154 137 130 130 114 89 67 36 23 69 53 26 10 5 2
280 267 262 261 255 238 29 359 20 22 9 14 10 13 73 95 99 104 108 111 114 114 115 118 121 131 170 193 187 153 136 130 110 92 78 66 46 29 40 45 37 33 11 11
284 304 326 333 354 20 6 10 20 18 18 12 2 52 109 113 112 113 113 115 115 118 126 137 153 173 199 209 188 119 106 99 88 77 78 82 73 63 41 35 30 30 27 28
324 333 304 298 274 300 11 27 33 30 23 20 43 101 118 118 118 117 118 120 125 137 158 175 184 188 179 143 110 96 92 85 81 71 78 116 98 81 57 30 31 36 35 29
313 303 288 281 294 309 40 40 32 36 50 67 83 102 115 119 121 122 127 140 153 171 185 191 184 132 109 103 105 102 93 88 105 100 65 101 94 79 57 53 49 42 64 55
323 335 313 304 342 344 356 32 50 71 81 92 99 102 109 119 126 134 149 163 168 171 169 150 124 115 115 113 102 86 68 49 26 59 66 85 87 67 43 38 97 107 94 145